Bradford, PA

10:52 PM EST on December 13, 2019 (GMT -0500)
Bradford Regional

Weather History for KBFD - August, 2019

Change the Weather History Date:

Sunday, August 4, 2019

  Actual Average Record
Temperature  
Mean Temperature 66 °F 65 °F  
Max Temperature 80 °F 77 °F 87 °F (1988)
Min Temperature 51 °F 53 °F 40 °F (1966)
Degree Days  
Heating Degree Days 0 0  
Month to date heating degree days 0 0  
Since 1 June heating degree days 134 209  
Since 1 July heating degree days 12 64  
Cooling Degree Days 1 2  
Month to date cooling degree days 10 8  
Year to date cooling degree days 200 132  
Since 1 June cooling degree days 193 122  
Growing Degree Days 14 (Base 50)    
Moisture  
Dew Point 57 °F    
Average Humidity 77    
Maximum Humidity 100    
Minimum Humidity 54    
Precipitation  
Precipitation 0.00 in 0.13 in 1.36 in (1960)
Month to date precipitation 0.55 0.55  
Year to date precipitation 28.52 26.39  
Sea Level Pressure  
Sea Level Pressure 30.02 in    
Wind  
Wind Speed 5 mph (NNW)    
Max Wind Speed 14 mph    
Max Gust Speed 19 mph    
Visibility 10 miles    
Events      
T = Trace of Precipitation, MM = Missing Value Source: NWS Daily Summary

Daily Weather History Graph

Daily Weather History Graph

Search for Another Location

Airport or City:

Astronomy

Aug. 04, 2019 Rise Set
Actual Time 6:11 AM EDT 8:29 PM EDT
Civil Twilight 5:40 AM EDT 9:00 PM EDT
Nautical Twilight 5:01 AM EDT 9:38 PM EDT
Astronomical Twilight 4:19 AM EDT 10:21 PM EDT
Moon 10:17 AM EDT (8/4) 11:03 PM EDT (8/4)
Length of Visible Light 15h 20m
Length of Day
14h 18m
Waxing Crescent, 18% of the Moon is Illuminated
Aug 4
Waxing Crescent
Aug 7
First Quarter
Aug 15
Full
Aug 23
Last Quarter
Aug 30
New

Hourly Weather History & Observations

Time (EDT) Temp. Dew Point Humidity Pressure Visibility Wind Dir Wind Speed Gust Speed Precip Events Conditions
12:53 AM 55.0 °F 53.1 °F 93% 30.03 in 10.0 mi Calm Calm - N/A   Clear
1:53 AM 55.0 °F 53.1 °F 93% 30.02 in 10.0 mi Calm Calm - N/A   Clear
2:53 AM 54.0 °F 52.0 °F 93% 30.02 in 9.0 mi Calm Calm - N/A   Partly Cloudy
3:53 AM 54.0 °F 53.1 °F 97% 30.01 in 10.0 mi Calm Calm - N/A   Clear
4:53 AM 51.1 °F 50.0 °F 96% 30.01 in 8.0 mi SE 3.5 mph - N/A   Clear
5:53 AM 51.1 °F 50.0 °F 96% 30.02 in 8.0 mi ESE 3.5 mph - N/A   Clear
6:53 AM 53.1 °F 51.1 °F 93% 30.02 in 10.0 mi Calm Calm - N/A   Clear
7:53 AM 59.0 °F 55.9 °F 90% 30.02 in 10.0 mi Calm Calm - N/A   Clear
8:53 AM 69.1 °F 63.0 °F 81% 30.02 in 10.0 mi West 4.6 mph - N/A   Clear
9:53 AM 73.0 °F 62.1 °F 68% 30.03 in 10.0 mi NNW 6.9 mph - N/A   Clear
10:53 AM 75.0 °F 60.1 °F 60% 30.03 in 10.0 mi NW 11.5 mph - N/A   Mostly Cloudy
11:53 AM 75.9 °F 61.0 °F 60% 30.04 in 10.0 mi NW 9.2 mph - N/A   Mostly Cloudy
12:53 PM 77.0 °F 61.0 °F 58% 30.02 in 10.0 mi West 9.2 mph - N/A   Mostly Cloudy
1:53 PM 75.9 °F 60.1 °F 58% 30.02 in 10.0 mi NNW 11.5 mph - N/A   Mostly Cloudy
2:53 PM 75.9 °F 60.1 °F 58% 30.01 in 10.0 mi Variable 6.9 mph - N/A   Scattered Clouds
3:53 PM 77.0 °F 61.0 °F 58% 30.00 in 10.0 mi West 9.2 mph - N/A   Scattered Clouds
4:53 PM 78.1 °F 61.0 °F 56% 29.99 in 10.0 mi North 10.4 mph - N/A   Mostly Cloudy
5:53 PM 75.9 °F 60.1 °F 58% 30.00 in 10.0 mi North 10.4 mph - N/A   Clear
6:53 PM 75.0 °F 59.0 °F 57% 30.01 in 10.0 mi NNW 9.2 mph - N/A   Clear
7:53 PM 72.0 °F 59.0 °F 64% 30.01 in 10.0 mi North 5.8 mph - N/A   Clear
8:53 PM 66.0 °F 57.9 °F 75% 30.01 in 10.0 mi Calm Calm - N/A   Clear
9:53 PM 61.0 °F 57.9 °F 90% 30.03 in 10.0 mi Calm Calm - N/A   Clear
10:53 PM 60.1 °F 57.9 °F 93% 30.03 in 10.0 mi Calm Calm - N/A   Clear
11:53 PM 57.9 °F 55.9 °F 93% 30.03 in 10.0 mi Calm Calm - N/A   Clear